TimeAKDT,TemperatureF,Dew PointF,Humidity,Sea Level PressureIn,VisibilityMPH,Wind Direction,Wind SpeedMPH,Gust SpeedMPH,PrecipitationIn,Events,Conditions,WindDirDegrees,DateUTC
12:16 AM,51.8,30.2,44,29.77,10.0,East,10.4,21.9,N/A,,Overcast,80,2013-10-18 08:16:00
12:36 AM,51.8,30.2,44,29.77,10.0,East,9.2,25.3,N/A,,Overcast,90,2013-10-18 08:36:00
12:56 AM,-9999,-9999,N/A,29.76,10.0,East,13.8,21.9,N/A,,Overcast,90,2013-10-18 08:56:00
1:16 AM,51.8,30.2,44,29.75,10.0,East,9.2,20.7,N/A,,Mostly Cloudy,90,2013-10-18 09:16:00
1:36 AM,-9999,-9999,N/A,29.74,10.0,East,10.4,18.4,N/A,,Scattered Clouds,80,2013-10-18 09:36:00
1:56 AM,-9999,-9999,N/A,29.73,10.0,East,10.4,21.9,N/A,,Mostly Cloudy,80,2013-10-18 09:56:00
2:16 AM,51.8,30.2,44,29.72,10.0,East,13.8,23.0,N/A,,Overcast,80,2013-10-18 10:16:00
2:36 AM,-9999,-9999,N/A,29.71,10.0,East,12.7,21.9,N/A,,Overcast,80,2013-10-18 10:36:00
2:56 AM,51.8,30.2,44,29.70,10.0,East,15.0,21.9,N/A,,Overcast,90,2013-10-18 10:56:00
3:16 AM,-9999,-9999,N/A,29.69,10.0,East,13.8,24.2,N/A,,Overcast,80,2013-10-18 11:16:00
3:36 AM,51.8,30.2,44,29.69,10.0,East,12.7,26.5,N/A,,Overcast,100,2013-10-18 11:36:00
3:56 AM,51.8,30.2,44,29.69,10.0,East,13.8,24.2,N/A,,Overcast,90,2013-10-18 11:56:00
4:16 AM,51.8,32.0,47,29.69,10.0,East,12.7,21.9,N/A,,Overcast,90,2013-10-18 12:16:00
4:36 AM,51.8,33.8,50,29.68,10.0,East,11.5,21.9,N/A,,Overcast,100,2013-10-18 12:36:00
4:56 AM,50.0,33.8,54,29.69,10.0,East,11.5,20.7,N/A,,Overcast,90,2013-10-18 12:56:00
5:16 AM,48.2,35.6,62,29.69,10.0,East,5.8,-,0.01,,Overcast,80,2013-10-18 13:16:00
5:36 AM,48.2,35.6,62,29.69,10.0,East,8.1,-,0.02,,Overcast,80,2013-10-18 13:36:00
5:56 AM,48.2,35.6,62,29.69,10.0,East,6.9,-,0.03,,Overcast,80,2013-10-18 13:56:00
6:16 AM,48.2,35.6,62,29.69,10.0,East,4.6,-,N/A,,Overcast,80,2013-10-18 14:16:00
6:36 AM,48.2,35.6,62,29.69,10.0,ENE,6.9,-,0.01,,Overcast,70,2013-10-18 14:36:00
6:56 AM,48.2,35.6,62,29.69,10.0,ENE,6.9,-,0.02,,Overcast,60,2013-10-18 14:56:00
7:16 AM,48.2,35.6,62,29.69,10.0,ENE,8.1,-,N/A,,Overcast,60,2013-10-18 15:16:00
7:36 AM,48.2,35.6,62,29.69,10.0,ENE,6.9,-,N/A,,Overcast,70,2013-10-18 15:36:00
7:56 AM,46.4,35.6,66,29.69,10.0,SW,3.5,-,N/A,,Overcast,230,2013-10-18 15:56:00
8:16 AM,48.2,35.6,62,29.70,10.0,East,4.6,-,N/A,,Overcast,80,2013-10-18 16:16:00
8:36 AM,46.4,35.6,66,29.70,10.0,NE,5.8,-,N/A,,Overcast,50,2013-10-18 16:36:00
8:56 AM,46.4,35.6,66,29.70,10.0,ENE,5.8,-,N/A,,Overcast,60,2013-10-18 16:56:00
9:16 AM,48.2,33.8,58,29.70,10.0,ENE,5.8,-,N/A,,Overcast,70,2013-10-18 17:16:00
9:36 AM,48.2,35.6,62,29.71,10.0,Calm,Calm,-,N/A,,Overcast,0,2013-10-18 17:36:00
9:56 AM,48.2,33.8,58,29.72,10.0,Calm,Calm,-,N/A,,Overcast,0,2013-10-18 17:56:00
10:16 AM,48.2,33.8,58,29.72,10.0,Calm,Calm,-,N/A,,Overcast,0,2013-10-18 18:16:00
10:36 AM,48.2,33.8,58,29.73,10.0,NE,4.6,-,N/A,,Overcast,40,2013-10-18 18:36:00
10:56 AM,48.2,35.6,62,29.74,10.0,West,10.4,-,N/A,,Mostly Cloudy,280,2013-10-18 18:56:00
11:16 AM,48.2,37.4,66,29.75,10.0,WNW,5.8,-,N/A,,Mostly Cloudy,300,2013-10-18 19:16:00
11:36 AM,48.2,37.4,66,29.75,10.0,WNW,10.4,-,N/A,,Mostly Cloudy,300,2013-10-18 19:36:00
11:56 AM,48.2,37.4,66,29.77,10.0,West,9.2,-,N/A,,Partly Cloudy,270,2013-10-18 19:56:00
12:16 PM,46.4,37.4,71,29.77,10.0,NW,5.8,-,N/A,,Mostly Cloudy,310,2013-10-18 20:16:00
12:36 PM,48.2,37.4,66,29.77,10.0,North,3.5,-,N/A,,Mostly Cloudy,350,2013-10-18 20:36:00
12:56 PM,48.2,37.4,66,29.78,10.0,NW,5.8,-,N/A,,Scattered Clouds,320,2013-10-18 20:56:00
1:16 PM,48.2,37.4,66,29.78,10.0,NW,4.6,-,N/A,,Partly Cloudy,310,2013-10-18 21:16:00
1:36 PM,48.2,37.4,66,29.78,10.0,NNE,3.5,-,N/A,,Clear,30,2013-10-18 21:36:00
1:56 PM,48.2,37.4,66,29.78,10.0,Calm,Calm,-,N/A,,Clear,0,2013-10-18 21:56:00
2:16 PM,50.0,35.6,58,29.79,10.0,Calm,Calm,-,N/A,,Partly Cloudy,0,2013-10-18 22:16:00
2:36 PM,50.0,35.6,58,29.78,10.0,NE,4.6,-,N/A,,Mostly Cloudy,40,2013-10-18 22:36:00
2:56 PM,50.0,35.6,58,29.78,10.0,NE,5.8,-,N/A,,Overcast,50,2013-10-18 22:56:00
3:16 PM,51.8,35.6,54,29.77,10.0,ENE,5.8,-,N/A,,Overcast,70,2013-10-18 23:16:00
3:36 PM,51.8,35.6,54,29.76,10.0,East,4.6,-,N/A,,Overcast,90,2013-10-18 23:36:00
3:56 PM,51.8,35.6,54,29.76,10.0,East,5.8,-,N/A,,Overcast,80,2013-10-18 23:56:00
4:16 PM,51.8,32.0,47,29.75,10.0,East,6.9,-,N/A,,Overcast,90,2013-10-19 00:16:00
4:36 PM,51.8,30.2,44,29.75,10.0,East,5.8,-,N/A,,Overcast,90,2013-10-19 00:36:00
4:56 PM,50.0,30.2,47,29.75,10.0,East,4.6,-,N/A,,Overcast,100,2013-10-19 00:56:00
5:16 PM,50.0,28.4,43,29.74,10.0,East,6.9,-,N/A,,Overcast,100,2013-10-19 01:16:00
5:36 PM,50.0,28.4,43,29.74,10.0,East,9.2,-,N/A,,Overcast,80,2013-10-19 01:36:00
5:56 PM,48.2,30.2,50,29.73,10.0,East,6.9,-,N/A,,Overcast,90,2013-10-19 01:56:00
6:16 PM,48.2,30.2,50,29.73,10.0,East,6.9,-,N/A,,Overcast,80,2013-10-19 02:16:00
6:36 PM,50.0,30.2,47,29.73,10.0,East,9.2,16.1,N/A,,Overcast,90,2013-10-19 02:36:00
6:56 PM,50.0,30.2,47,29.73,10.0,East,6.9,16.1,N/A,,Overcast,100,2013-10-19 02:56:00
7:16 PM,50.0,30.2,47,29.72,10.0,East,8.1,-,N/A,,Overcast,100,2013-10-19 03:16:00
7:36 PM,48.2,30.2,50,29.72,10.0,ENE,8.1,17.3,N/A,,Overcast,70,2013-10-19 03:36:00
7:56 PM,50.0,30.2,47,29.71,10.0,East,9.2,19.6,N/A,,Overcast,80,2013-10-19 03:56:00
8:16 PM,50.0,28.4,43,29.71,10.0,East,13.8,20.7,N/A,,Overcast,80,2013-10-19 04:16:00
8:36 PM,50.0,28.4,43,29.70,10.0,East,10.4,20.7,N/A,,Overcast,90,2013-10-19 04:36:00
8:56 PM,50.0,28.4,43,29.69,10.0,East,11.5,21.9,N/A,,Overcast,90,2013-10-19 04:56:00
9:16 PM,-9999,-9999,N/A,29.68,10.0,East,11.5,20.7,N/A,,Overcast,80,2013-10-19 05:16:00
9:36 PM,-9999,-9999,N/A,29.68,10.0,East,11.5,24.2,N/A,,Overcast,90,2013-10-19 05:36:00
9:56 PM,-9999,-9999,N/A,29.67,10.0,ENE,13.8,23.0,N/A,,Overcast,70,2013-10-19 05:56:00
10:16 PM,-9999,-9999,N/A,29.66,10.0,ENE,15.0,27.6,N/A,,Overcast,70,2013-10-19 06:16:00
10:36 PM,-9999,-9999,N/A,29.65,10.0,East,11.5,24.2,N/A,,Overcast,80,2013-10-19 06:36:00
10:56 PM,-9999,-9999,N/A,29.65,10.0,East,15.0,24.2,N/A,,Overcast,90,2013-10-19 06:56:00
11:16 PM,-9999,-9999,N/A,29.63,10.0,East,15.0,29.9,N/A,,Overcast,80,2013-10-19 07:16:00
11:36 PM,-9999,-9999,N/A,29.62,10.0,East,13.8,26.5,N/A,,Overcast,80,2013-10-19 07:36:00
11:56 PM,-9999,-9999,N/A,29.61,10.0,East,15.0,27.6,N/A,,Mostly Cloudy,90,2013-10-19 07:56:00